STARLINK-38006, 69755

Orbit data source: Space-Track

STARLINK-38006, 69755 is a payload satellite owned by SpaceX/Seattle (US) in SSO that was launched on Thu, 02 Jul 2026 UTC via an FALCON 9 launch vehicle from the Air Force Western Test Range (AFWTR). Payload-class satellites include a variety of spacecraft equipped with specific instruments for various scientific and technological missions. These include communications satellites like Starlink; space stations such as the ISS; scientific satellites like the Hubble; Earth observation satellites from companies like Planet Labs, Umbra, and HawkEye 360; GPS; miniature CubeSats for education and research; and military/defense satellites.

Loading next visibility...
Identifier
69755, 2026-150S
Orbit
SSO
Country
Flag of USUS
Related business
Manufacturer
SpaceX/Seattle
Mission
Operational spacecraft
Bus & Motor
STARLINK V2MO, Unknown motor
Mass
575 kg wet, ~530 kg dry
Launch date (UTC)
2026-07-02 (3 weeks ago)
Launch vehicle
FALCON 9
Launch site
Air Force Western Test Range (AFWTR)
Object type
Payload
Rocket body
Debris
Shape & HBR
Unknown shape, 17.7 m
Radar Cross Section
Large (>1 m²)

Expand to show TLE details & history
Last TLE update: 18 hours ago

TLE from 18 hours ago
0 STARLINK-38006
1 69755U 26150S   26202.48242785  .00265936  00000-0  17215-2 0  9997
2 69755  97.2863  41.1970 0000629 107.2624 252.8710 15.75288420  4315
Epoch: 2026-07-21T11:34Z
TLE epoch observation values (Epoch: 2026-07-21T11:34:41.766Z)
Latitude
-0.00002°
Longitude
-71.72851°
Altitude
347.104 km
Speed
7.701 km/s
True Right ascension
02h 44m 47s
True Declination
0° 00' 00"
Sunlit
Object was in daylight at epoch
Visualization orbit readout
Latitude
Unknown
Longitude
Unknown
Altitude
Unknown
Speed
Unknown
Apparent Right ascension
Unknown
Apparent Declination
Unknown
Sunlit
N/A
Visualization observer readout
Local Sidereal Time
18:38:26
Azimuth
Unknown
Elevation
Unknown
Doppler factor
Unknown
Orbital elements
Apogee altitude
341.121 km
Perigee altitude
340.275 km
Semi-major axis
6,718.835 km
Eccentricity
0.00006
Inclination
97.2863°
RAAN
41.197°
Arg. of periapsis
107.2624°
True anomaly
252.86411°
Mean anomaly
252.871°
Eccentric anomaly
252.86756°
Mean motion
3.94096 °/min
Orbital period
91.35 mins
BSTAR
0.0017215
Loading maneuver chart data...
Computing Atmospheric mass density...
Loading historical data...
Loading historical data...
Loading historical data...
Loading historical data...
Loading historical data...
Loading historical data...
Loading historical data...

Documentation

Showing up to 5 results
|